Orbital Elements at Epoch 2459200.5 (2020-Dec-17.0) TDB
Reference: JPL 21 (heliocentric ecliptic J2000)
Element | Value | Uncertainty (1-sigma) | Units |
e | .03815675191081431 | 6.1148e-08 | |
a | 5.227630600225486 | 1.9168e-07 | au |
q | 5.0281611963313 | 4.65e-07 | au |
i | 21.88214761654999 | 5.3485e-06 | deg |
node | 117.5270757257761 | 1.6582e-05 | deg |
peri | 329.469236746655 | 0.00010881 | deg |
M | 273.1899572645433 | 0.0001131 | deg |
tp | 2460253.245111260633 (2023-Nov-04.74511126) | 0.0014087 | TDB |
period | 4365.718851317117 11.95 | 0.00024012 6.574e-07 | d yr |
n | .08246064674810419 | 4.5354e-09 | deg/d |
Q | 5.427100004119671 | 1.99e-07 | au |
|
| | Orbit Determination Parameters
Additional Information
|